sat.trackr.live / text

‹ back to catalog

YAOGAN-30 10A

NORAD 48860 · 2021-055A

PAYLOAD ACTIVE UNKNOWN

§ Identity

Operator
Country
PRC
Launch date
2021-06-18
Launch site
XICLF
Launch vehicle
Mass (kg)
RCS (m²)

External: N2YO · Heavens-Above · Gunter

§ Orbital elements

Epoch: 2026-09-20T19:09:47.287872Z

Period
95.81 min
Inclination
34.9960°
Eccentricity
0.0003662
Mean motion
15.03045824 rev/d
Perigee alt
555.0 km
Apogee alt
560.1 km
Semi-major
6,935.6 km
B*
1.0495e-4
RAAN
289.3294°
Arg perigee
201.3947°
Mean anomaly
158.6608°
Rev number
28,757

§ Raw data

YAOGAN-30 10A1 48860U 21055A   26263.79846398  .00001413  00000+0  10495-3 0  99922 48860  34.9960 289.3294 0003662 201.3947 158.6608 15.03045824287574

JSON: /api/v1/satellites/48860 · /tle

For live sub-satellite position, see the globe view (requires WebGL).

§ Visibility from observer

Set your observer location to see the next 7 days of passes ≥ 10°. The values pass through the URL so the page stays shareable.

No JS? Fill the form by hand. The geolocation button needs JavaScript.